Location: Alladorf
(49.9620°N, 11.3790°E)
Time: 21:29:13
(UTC+00:00)

Cosmos 2327 Rocket - Pass Details

Date: 29 November 2020
Orbit: 945 x 1007 km, 83.0° (Epoch: 24 January)

Event Time Altitude Azimuth Distance (km) Brightness Sun altitude
Rises 05:27:56 0° 198° (SSW) 3,613 7.5 -12.5°
Reaches altitude 10° 05:30:28 10° 202° (SSW) 2,667 6.8 -12.1°
Maximum altitude 05:36:29 63° 283° (WNW) 1,056 4.4 -11.2°
Drops below altitude 10° 05:42:32 10° 4° (N) 2,679 6.6 -10.3°
Sets 05:45:05 0° 8° (N) 3,631 7.3 -9.9°
